Weather Roundup
Issued by NWS

Home | Current Version | Previous Version | Graphics & Text | Print | Product List | Glossary Off
Versions: 1 2 3 4 5 6 7 8 9 10 11 12 13 14 15 16 17 18 19 20 21 22 23 24 25 26 27 28 29 30 31 32 33 34 35 36 37 38 39 40 41 42 43 44 45 46 47 48 49 50

000
NZUS93 KARX 281259
HRRWXR

CURRENT HOURLY OBSERVATIONS ACROSS
MUCH OF THE UPPER MISSISSIPPI VALLEY
NATIONAL WEATHER SERVICE LA CROSSE WI
800 AM CDT THU MAY 28 2015


...SOUTHEAST MINNESOTA...


CITY           SKY/WX    TMP DP  RH WIND       PRES   REMARKS
ROCHESTER      SUNNY     65  58  78 S14       30.13S
ROCHESTER/MAYO FAIR      66  57  72 S9        30.12R
WINONA         SUNNY     66  63  88 SE5       30.12S
AUSTIN         SUNNY     64  57  77 S5        30.12S
ALBERT LEA     MOSUNNY   66  55  68 S6        30.12R
DODGE CENTER   SUNNY     68  57  68 S9        30.12R
PRESTON        SUNNY     65  56  73 SW8       30.15R
OWATONNA       SUNNY     68  54  60 S9        30.10R
FARIBAULT      SUNNY     66  57  72 S7        30.10R
$$

...ELSEWHERE IN MINNESOTA...


CITY           SKY/WX    TMP DP  RH WIND       PRES   REMARKS
MINNEAPOLIS    PTSUNNY   70  55  59 S6        30.06S
INTNL FALLS    CLOUDY    55  48  77 SE5       30.01F
DULUTH         MOSUNNY   48  41  76 E13       30.10F
RED WING       SUNNY     68  57  68 SE5       30.08S
REDWOOD FALLS  MOSUNNY   66  54  65 S7        30.04R
MANKATO        SUNNY     64  55  72 S8        30.08S
WORTHINGTON    PTSUNNY   66  50  55 S14       30.07S
FAIRMONT       MOSUNNY   64  52  63 S10       30.09S
$$

...SOUTHWEST WISCONSIN...


CITY           SKY/WX    TMP DP  RH WIND       PRES   REMARKS
LA CROSSE      SUNNY     68  59  73 S6        30.13R
PRAIRIE DU CHI SUNNY     62  59  90 CALM      30.15R
BOSCOBEL       FOG       61  60  97 CALM      30.16R VSB 1/2
LONE ROCK      NOT AVBL
PLATTEVILLE    SUNNY     65  60  85 SE6       30.17S
FORT MC COY    SUNNY     62  58  86 CALM      30.14R
VIROQUA        FAIR      65  58  77 S5        30.16R
WIS DELLS      SUNNY     66  57  71 SW5       30.15S
$$

...ELSEWHERE IN WISCONSIN...


CITY           SKY/WX    TMP DP  RH WIND       PRES   REMARKS
MILWAUKEE      SUNNY     71  57  61 SW3       30.17S
MADISON        MOSUNNY   69  57  65 S3        30.17R
GREEN BAY      SUNNY     66  59  78 CALM      30.15S
EAU CLAIRE     NOT AVBL
BLACK RVR FLS  FAIR      61  61  99 CALM      30.13R
MEDFORD        SUNNY     60  57  91 CALM      30.13S
WAUSAU         SUNNY     62  58  86 E5        30.12F
WIS RAPIDS     SUNNY     64  59  83 SW6       30.15R
MARSHFIELD     SUNNY     63  58  83 SW5       30.14R
RICE LAKE      SUNNY     61  56  82 SE5       30.11R
$$

...NORTHEAST IOWA...


CITY           SKY/WX    TMP DP  RH WIND       PRES   REMARKS
DECORAH        SUNNY     66  57  72 S6        30.15R
MASON CITY     MOSUNNY   66  60  81 S8        30.14R
CHARLES CITY   MOSUNNY   64  61  88 S8        30.15R
OELWEIN        SUNNY     64  59  82 S8        30.17R
$$

...ELSEWHERE IN IOWA...


CITY           SKY/WX    TMP DP  RH WIND       PRES   REMARKS
DES MOINES     CLOUDY    66  57  72 S8        30.13S
IOWA CITY      MOSUNNY   65  60  84 CALM      30.18R
FORT DODGE     CLOUDY    64  55  72 S8        30.13S
$$

...NORTHERN ILLINOIS...


CITY           SKY/WX    TMP DP  RH WIND       PRES   REMARKS
CHICAGO-OHARE  MOSUNNY   66  56  70 CALM      30.20R
CHICAGO-MIDWAY MOSUNNY   68  57  68 CALM      30.20R
MOLINE         SUNNY     66  58  75 CALM      30.18R
ROCKFORD       MOSUNNY   66  58  75 S3        30.21R
PEORIA         SUNNY     69  56  62 SE5       30.20R
$$

NOTE: "FAIR" INDICATES FEW OR NO CLOUDS BELOW 12,000 FEET WITH NO
SIGNIFICANT WEATHER AND/OR OBSTRUCTIONS TO VISIBILITY. WIND
SPEEDS ARE IN MILES-PER-HOUR.



USA.gov is the U.S. government's official web portal to all federal, state and local government web resources and services.